This is the latest recevied weather packets stored in our database for station/object K9JWM. If no packets are shown the sender has not sent any weather packets the latest 10 day(s).
| Time | Temp. | Humidity | Pressure | Rain* | Wind** | Luminosity | Snow |
|---|---|---|---|---|---|---|---|
| 1777749431 | 12.78° C | 31% | 1014 hPa | 0 mm | - | - | - |
| 1777748531 | 12.78° C | 36% | 1014.3 hPa | 0 mm | - | - | - |
| 1777747631 | 12.22° C | 32% | 1014.5 hPa | 0 mm | - | - | - |
| 1777746731 | 12.22° C | 39% | 1014.8 hPa | 0 mm | - | - | - |
| 1777745830 | 12.78° C | 35% | 1014.9 hPa | 0 mm | - | - | - |
| 1777744931 | 12.22° C | 35% | 1015.2 hPa | 0 mm | - | - | - |
| 1777744029 | 12.22° C | 35% | 1015.4 hPa | 0 mm | - | - | - |
| 1777743130 | 11.11° C | 38% | 1015.8 hPa | 0 mm | - | - | - |
| 1777742230 | 11.67° C | 34% | 1016 hPa | 0 mm | - | - | - |
| 1777741330 | 11.67° C | 32% | 1016.2 hPa | 0 mm | - | - | - |
| 1777740430 | 11.67° C | 34% | 1016.4 hPa | 0 mm | - | - | - |
| 1777739530 | 10.56° C | 37% | 1016.6 hPa | 0 mm | - | - | - |
| 1777738630 | 10.56° C | 37% | 1016.8 hPa | 0 mm | - | - | - |
| 1777737730 | 10° C | 40% | 1017 hPa | 0 mm | - | - | - |
| 1777736831 | 10° C | 38% | 1017.2 hPa | 0 mm | - | - | - |
| 1777735931 | 9.44° C | 38% | 1017.4 hPa | 0 mm | - | - | - |
| 1777735031 | 8.89° C | 42% | 1017.6 hPa | 0 mm | - | - | - |
| 1777734131 | 8.33° C | 46% | 1017.6 hPa | 0 mm | - | - | - |
| 1777733231 | 7.78° C | 49% | 1017.5 hPa | 0 mm | - | - | - |
| 1777732330 | 7.22° C | 53% | 1017.7 hPa | 0 mm | - | - | - |
| 1777731431 | 6.11° C | 56% | 1018.1 hPa | 0 mm | - | - | - |
| 1777730530 | 5.56° C | 59% | 1018.2 hPa | 0 mm | - | - | - |
| 1777729630 | 5° C | 63% | 1018.2 hPa | 0 mm | - | - | - |
| 1777728731 | 3.89° C | 65% | 1018.4 hPa | 0 mm | - | - | - |
| 1777727832 | 3.33° C | 69% | 1018.5 hPa | 0 mm | - | - | - |
* Rain latest hour (hover to see other rain measurements)
** Current wind speed in m/s (hover to see current wind gust speed)